• In United Kingdom
  • List of Countries
  • For 7 days
  • Water Temperature
  • Satellite Maps
  • Weather Map
  • Weather Widgets
  • user-avatar
    Login

    Hourly Weather Debienko

    Today, 23 October, Tuesday

    Time Temperature Precipitation Wind Pressure Humidity
    00:00 +4°C° 0 mm 4 mps 762 mmHg 84%
    01:00 +4°C° 0 mm 4 mps 761 mmHg 84%
    02:00 +4°C° 0 mm 4 mps 761 mmHg 83%
    03:00 +3°C° 0 mm 5 mps 760 mmHg 82%
    04:00 +3°C° 0 mm 5 mps 759 mmHg 81%
    05:00 +4°C° 0 mm 6 mps 758 mmHg 80%
    06:00 +4°C° 0 mm 6 mps 757 mmHg 79%
    07:00 +4°C° 0 mm 7 mps 756 mmHg 77%
    08:00 +5°C° 0.8 mm 8 mps 755 mmHg 78%
    09:00 +5°C° 0.8 mm 9 mps 753 mmHg 78%
    10:00 +5°C° 0.8 mm 10 mps 752 mmHg 78%
    11:00 +6°C° 0.7 mm 10 mps 751 mmHg 79%
    12:00 +6°C° 0.7 mm 11 mps 750 mmHg 79%
    13:00 +7°C° 0.7 mm 11 mps 749 mmHg 79%
    14:00 +8°C° 0.8 mm 11 mps 748 mmHg 80%
    15:00 +8°C° 0.8 mm 11 mps 748 mmHg 82%
    16:00 +9°C° 0.8 mm 11 mps 747 mmHg 83%
    17:00 +9°C° 1.2 mm 10 mps 746 mmHg 83%
    18:00 +9°C° 1.2 mm 10 mps 746 mmHg 83%
    19:00 +9°C° 1.2 mm 10 mps 745 mmHg 84%
    20:00 +9°C° 1.2 mm 10 mps 745 mmHg 83%
    21:00 +11°C° 1.2 mm 10 mps 744 mmHg 83%
    22:00 +11°C° 1.2 mm 10 mps 744 mmHg 82%
    23:00 +9°C° 1.4 mm 10 mps 743 mmHg 81%

    Tomorrow, 24 October, Wednesday

    Time Temperature Precipitation Wind Pressure Humidity
    00:00 +9°C° 1.4 mm 10 mps 743 mmHg 79%
    01:00 +9°C° 1.4 mm 10 mps 742 mmHg 78%
    02:00 +8°C° 0.3 mm 10 mps 743 mmHg 74%
    03:00 +7°C° 0.3 mm 10 mps 743 mmHg 71%
    04:00 +6°C° 0.3 mm 10 mps 744 mmHg 67%
    05:00 +5°C° 0.1 mm 9 mps 745 mmHg 66%
    06:00 +5°C° 0.1 mm 9 mps 746 mmHg 65%
    07:00 +4°C° 0.1 mm 8 mps 746 mmHg 64%
    08:00 +5°C° 0.1 mm 8 mps 747 mmHg 60%
    09:00 +6°C° 0.1 mm 9 mps 748 mmHg 56%
    10:00 +6°C° 0.1 mm 10 mps 748 mmHg 51%
    11:00 +7°C° 0 mm 10 mps 749 mmHg 47%
    12:00 +7°C° 0 mm 10 mps 749 mmHg 43%
    13:00 +8°C° 0 mm 11 mps 750 mmHg 39%
    14:00 +7°C° 0 mm 9 mps 751 mmHg 41%
    15:00 +7°C° 0 mm 8 mps 751 mmHg 44%
    16:00 +6°C° 0 mm 7 mps 752 mmHg 46%
    17:00 +6°C° 0 mm 7 mps 752 mmHg 50%
    18:00 +5°C° 0 mm 6 mps 753 mmHg 54%
    19:00 +5°C° 0 mm 6 mps 753 mmHg 58%
    20:00 +4°C° 0 mm 6 mps 753 mmHg 59%
    21:00 +4°C° 0 mm 6 mps 753 mmHg 60%
    22:00 +4°C° 0 mm 6 mps 754 mmHg 62%
    23:00 +3°C° 0 mm 5 mps 754 mmHg 65%

    Day after tomorrow, 25 October, Thursday

    Time Temperature Precipitation Wind Pressure Humidity
    00:00 +3°C° 0 mm 5 mps 753 mmHg 69%
    01:00 +3°C° 0 mm 5 mps 753 mmHg 73%
    02:00 +3°C° 0.1 mm 5 mps 753 mmHg 76%
    03:00 +3°C° 0.1 mm 5 mps 752 mmHg 78%
    04:00 +5°C° 0.1 mm 5 mps 751 mmHg 81%
    05:00 +5°C° 0.7 mm 6 mps 750 mmHg 84%
    06:00 +6°C° 0.7 mm 7 mps 749 mmHg 86%
    07:00 +7°C° 0.7 mm 8 mps 748 mmHg 88%
    08:00 +9°C° 0.2 mm 8 mps 748 mmHg 86%
    09:00 +9°C° 0.2 mm 8 mps 748 mmHg 84%
    10:00 +10°C° 0.2 mm 9 mps 747 mmHg 82%
    11:00 +10°C° 0.2 mm 9 mps 747 mmHg 80%
    12:00 +10°C° 0.2 mm 9 mps 747 mmHg 77%
    13:00 +10°C° 0.2 mm 9 mps 748 mmHg 75%
    14:00 +9°C° 0.1 mm 8 mps 748 mmHg 74%
    15:00 +9°C° 0.1 mm 8 mps 748 mmHg 73%
    16:00 +9°C° 0.1 mm 8 mps 748 mmHg 72%
    17:00 +8°C° 0 mm 7 mps 749 mmHg 73%
    18:00 +8°C° 0 mm 6 mps 749 mmHg 75%
    19:00 +7°C° 0 mm 6 mps 750 mmHg 76%
    20:00 +7°C° 0 mm 5 mps 750 mmHg 78%
    21:00 +7°C° 0 mm 5 mps 750 mmHg 79%
    22:00 +6°C° 0 mm 5 mps 750 mmHg 81%
    23:00 +6°C° 0 mm 4 mps 750 mmHg 82%

    26 October, Friday

    Time Temperature Precipitation Wind Pressure Humidity
    00:00 +6°C° 0 mm 4 mps 750 mmHg 84%
    01:00 +5°C° 0 mm 4 mps 750 mmHg 85%
    02:00 +5°C° 0 mm 4 mps 750 mmHg 87%
    03:00 +5°C° 0 mm 4 mps 750 mmHg 89%
    04:00 +4°C° 0 mm 4 mps 750 mmHg 90%
    05:00 +4°C° 0 mm 3 mps 750 mmHg 91%
    06:00 +4°C° 0 mm 3 mps 750 mmHg 92%
    07:00 +4°C° 0 mm 3 mps 749 mmHg 93%
    08:00 +7°C° 0 mm 3 mps 749 mmHg 88%
    09:00 +8°C° 0 mm 3 mps 749 mmHg 83%
    10:00 +9°C° 0 mm 3 mps 749 mmHg 78%
    11:00 +10°C° 0 mm 3 mps 749 mmHg 78%
    12:00 +10°C° 0 mm 4 mps 748 mmHg 78%
    13:00 +11°C° 0 mm 4 mps 748 mmHg 78%
    14:00 +11°C° 0 mm 3 mps 747 mmHg 79%
    15:00 +11°C° 0 mm 3 mps 747 mmHg 79%
    16:00 +11°C° 0 mm 3 mps 746 mmHg 80%
    17:00 +11°C° 0 mm 3 mps 746 mmHg 80%
    18:00 +11°C° 0 mm 3 mps 745 mmHg 81%
    19:00 +10°C° 0 mm 4 mps 745 mmHg 81%
    20:00 +10°C° 0 mm 4 mps 745 mmHg 81%
    21:00 +10°C° 0 mm 4 mps 744 mmHg 81%
    22:00 +10°C° 0 mm 4 mps 744 mmHg 81%
    23:00 +10°C° 0 mm 4 mps 744 mmHg 81%

    27 October, Saturday

    Time Temperature Precipitation Wind Pressure Humidity
    00:00 +10°C° 0 mm 4 mps 743 mmHg 81%
    01:00 +8°C° 0 mm 4 mps 743 mmHg 81%
    02:00 +8°C° 0.1 mm 4 mps 743 mmHg 81%
    03:00 +8°C° 0.1 mm 5 mps 743 mmHg 81%
    04:00 +8°C° 0.1 mm 5 mps 743 mmHg 81%
    05:00 +7°C° 0 mm 5 mps 743 mmHg 80%
    06:00 +7°C° 0 mm 5 mps 743 mmHg 80%
    07:00 +6°C° 0 mm 5 mps 744 mmHg 79%
    08:00 +6°C° 0 mm 5 mps 744 mmHg 74%
    09:00 +7°C° 0 mm 6 mps 744 mmHg 69%
    10:00 +7°C° 0 mm 6 mps 745 mmHg 64%
    11:00 +7°C° 0 mm 6 mps 745 mmHg 62%
    12:00 +8°C° 0 mm 6 mps 745 mmHg 61%
    13:00 +8°C° 0 mm 6 mps 745 mmHg 59%
    14:00 +8°C° 0 mm 5 mps 744 mmHg 59%
    15:00 +7°C° 0 mm 5 mps 744 mmHg 60%
    16:00 +7°C° 0 mm 4 mps 744 mmHg 60%
    17:00 +7°C° 0 mm 4 mps 745 mmHg 61%
    18:00 +6°C° 0 mm 4 mps 745 mmHg 62%
    19:00 +6°C° 0 mm 4 mps 745 mmHg 64%
    20:00 +7°C° 0 mm 3 mps 745 mmHg 64%
    21:00 +5°C° 0 mm 3 mps 745 mmHg 65%
    22:00 +5°C° 0 mm 3 mps 745 mmHg 66%
    23:00 +5°C° 0 mm 3 mps 745 mmHg 66%

    28 October, Sunday

    Time Temperature Precipitation Wind Pressure Humidity
    00:00 +6°C° 0 mm 2 mps 745 mmHg 67%
    01:00 +5°C° 0 mm 2 mps 745 mmHg 68%
    02:00 +5°C° 0 mm 2 mps 745 mmHg 69%
    03:00 +5°C° 0 mm 2 mps 744 mmHg 69%
    04:00 +5°C° 0 mm 2 mps 744 mmHg 70%
    05:00 +5°C° 0 mm 2 mps 744 mmHg 71%
    06:00 +4°C° 0 mm 2 mps 744 mmHg 72%
    07:00 +4°C° 0 mm 2 mps 744 mmHg 73%
    08:00 +4°C° 0 mm 3 mps 745 mmHg 71%
    09:00 +4°C° 0 mm 3 mps 745 mmHg 69%
    10:00 +5°C° 0 mm 3 mps 745 mmHg 67%
    11:00 +6°C° 0 mm 4 mps 746 mmHg 63%
    12:00 +6°C° 0 mm 4 mps 746 mmHg 59%
    13:00 +7°C° 0 mm 5 mps 746 mmHg 55%
    14:00 +7°C° 0 mm 4 mps 747 mmHg 55%
    15:00 +6°C° 0 mm 4 mps 747 mmHg 55%
    16:00 +7°C° 0 mm 3 mps 747 mmHg 55%
    17:00 +5°C° 0 mm 4 mps 748 mmHg 57%
    18:00 +4°C° 0 mm 4 mps 748 mmHg 59%
    19:00 +4°C° 0 mm 4 mps 749 mmHg 61%
    20:00 +3°C° 0 mm 4 mps 749 mmHg 62%
    21:00 +3°C° 0 mm 4 mps 749 mmHg 64%
    22:00 +3°C° 0 mm 4 mps 750 mmHg 66%
    23:00 +1°C° 0 mm 4 mps 750 mmHg 68%

    29 October, Monday

    Time Temperature Precipitation Wind Pressure Humidity
    00:00 +1°C° 0 mm 4 mps 751 mmHg 70%
    01:00 +1°C° 0 mm 4 mps 751 mmHg 72%
    02:00 +1°C° 0 mm 3 mps 751 mmHg 75%
    03:00 +1°C° 0 mm 3 mps 752 mmHg 77%
    04:00 +1°C° 0 mm 3 mps 752 mmHg 80%
    05:00 0°C° 0 mm 3 mps 752 mmHg 82%
    06:00 0°C° 0 mm 3 mps 753 mmHg 85%
    07:00 0°C° 0 mm 3 mps 753 mmHg 87%
    08:00 +1°C° 0 mm 3 mps 753 mmHg 83%
    09:00 +2°C° 0 mm 3 mps 754 mmHg 79%
    10:00 +4°C° 0 mm 3 mps 754 mmHg 75%
    11:00 +4°C° 0 mm 3 mps 754 mmHg 71%
    12:00 +6°C° 0 mm 2 mps 754 mmHg 67%
    13:00 +7°C° 0 mm 2 mps 754 mmHg 64%
    14:00 +6°C° 0 mm 2 mps 754 mmHg 64%
    15:00 +7°C° 0 mm 1 mps 754 mmHg 65%
    16:00 +7°C° 0 mm 1 mps 754 mmHg 66%
    17:00 +7°C° 0 mm 1 mps 754 mmHg 67%
    18:00 +6°C° 0 mm 1 mps 754 mmHg 69%
    19:00 +5°C° 0 mm 0 mps 754 mmHg 70%
    20:00 +6°C° 0.1 mm 1 mps 754 mmHg 72%
    21:00 +6°C° 0.1 mm 1 mps 754 mmHg 73%
    22:00 +5°C° 0.1 mm 1 mps 754 mmHg 75%
    23:00 +4°C° 0.2 mm 2 mps 753 mmHg 77%
    Show more